Starlink 5774

operational
NORAD ID: 56029 Int'l Des: 2023-042 Owner: SPXS Country: US Constellation: starlink
LEOCIRCULAR

About Starlink 5774

Description loading...

Live Position

Loading 3D Globe...

Upcoming Passes

Altitude History

Altitude vs Time

uPlot chart will show altitude changes over time

Two-Line Element Set

1 56029U 23042AV 25261.06847822 .00000214 00000-0 30908-4 0 9997
2 56029 43.0034 261.0730 0001336 269.7917 90.2772 15.02534716137092
Epoch: Sep 18, 2025 • Age: 16 hours

Current Status

Altitude 558.4 km
Velocity 7.58 km/s
Sub-Earth Point 5.46°N, 0.91°E
Launch Date Mar 24, 2023
Age 2.4 years
Type internet

Technical Details

Classification Payload
Mass 305.00 kg
Dry Mass 290.00 kg
Total Mass 305.00 kg
Length 0.20 m
Diameter 2.80 m
Span 9.00 m
Shape Box + pan
Manufacturer SPXS
Bus Type Starlink
Phase Status In Orbit
Owner/State SPXS/US

Large Constellations

Loading constellations...